> Flugplatz > 
Stacks Image 3
Aktuelle METAR Daten (Memmingen, Friedrichshafen, Laupheim):
2017/07/23 04:20 EDJA 230420Z 26005KT 9999 FEW057 BKN092 15/14 Q1018
2017/07/23 04:20 EDNY 230420Z AUTO 00000KT 9999 FEW019 BKN076 BKN098 16/15 Q1018
2017/07/23 04:20 ETHL 230420Z 19003KT 9999 FEW040 BKN070 16/15 Q1017 BLU
Sicherheits- und Servicehinweise:

Bitte achten Sie beim Anflug auf mögliche Fall­schirm­springer auf der Nordseite des Platzes, kontaktieren Sie zur Sicherheit den Flugleiter auf Leutkirch INFO 122,875.

Zollabfertigung:
für Ein- und Ausflug bei Voranmeldung mindestens 3 Stunden, nur Personenverkehr – keine Warenabfertigung.

Günstig Tanken:
AvGas 100LL · Jet A1l

Aktuelles:

Sommerflugbetrieb:
Der Flugplatz ist Mo – Sa von 09:00 Uhr
bis SS+30/20:00 Uhr (loc)
So. + Feiertags ab 10:30 Uhr
bis SS+30/20:00 Uhr (loc) geöffnet.

Weitere Informationen finden Sie in unserem Newsbereich.

Nutzen Sie unsere Online-Anmeldung zur Zoll- und Passkontrolle.